Wind_Speed
40 40 40 42 41 39 38 37 39 41 45 51 57 60 60 61 61 62 63 66 67 68 69 66 58 51 50 50 48 47 47 49 50 51 54 52 44 39 40 41 39 39 38 38 37 35 33 32 30 29 28 28 27 26 24 22 20 20 19 19 20 20 20 16 14 13 10 7 6 8 10 11 11 8 7 6 6 6 6 5 4 5 6 6 8 12 14 14
39 40 41 41 41 39 38 37 37 39 43 49 56 59 60 61 60 59 59 61 65 67 68 69 64 55 49 50 50 48 48 49 50 54 55 48 43 43 43 41 41 41 40 40 38 35 33 32 31 30 30 29 29 28 26 24 22 21 21 22 22 20 19 17 15 15 14 10 7 7 10 12 12 10 9 8 7 7 7 7 5 5 5 5 6 9 12 13
39 40 41 41 41 39 38 36 36 38 42 48 54 58 60 60 59 57 55 56 63 66 68 71 70 64 50 47 51 49 49 50 52 58 54 48 46 46 44 43 43 42 41 40 37 35 33 31 31 31 31 30 30 30 28 25 24 23 23 24 22 18 18 18 17 17 16 14 11 8 9 12 13 12 11 10 9 9 9 8 7 6 6 6 6 7 9 10
38 39 41 42 41 39 37 36 35 37 41 46 52 56 59 60 58 58 54 53 61 65 68 71 73 71 57 47 48 50 51 51 54 58 53 50 50 47 46 45 44 43 41 40 38 36 34 32 32 31 32 31 30 30 30 27 25 24 24 24 22 19 18 18 17 17 17 16 14 11 9 12 14 14 13 12 11 11 10 9 9 9 8 7 7 6 7 7
36 38 40 42 41 39 37 36 35 36 40 45 50 54 57 59 58 58 56 53 59 64 66 71 74 74 66 54 48 49 51 52 55 54 50 51 50 47 47 46 45 44 43 41 40 38 36 35 33 32 32 32 31 31 30 29 26 26 25 23 22 20 19 18 19 18 18 18 17 14 11 11 14 15 14 14 13 10 9 10 10 10 9 8 8 8 7 6
35 37 39 42 41 39 38 36 35 36 40 44 48 52 55 58 58 57 57 53 56 61 64 70 74 73 69 59 52 53 53 55 55 49 49 52 49 46 48 47 46 45 44 44 42 41 39 37 36 35 34 33 33 32 30 29 28 27 26 24 23 21 20 19 19 19 18 18 18 15 13 13 15 16 15 15 12 9 10 12 12 12 11 10 10 9 8 7
35 35 38 41 41 40 38 37 36 36 39 43 46 50 53 57 58 55 56 54 53 59 63 67 71 70 64 58 57 59 61 60 54 46 47 51 49 46 47 49 48 46 46 46 45 44 41 39 39 37 35 35 34 32 30 30 30 29 28 25 24 23 21 20 19 19 18 18 18 17 16 16 17 16 17 17 12 10 12 13 13 14 13 12 10 9 9 9
35 35 36 39 41 40 38 37 36 36 39 43 46 49 53 57 57 54 54 53 51 55 59 62 65 63 58 58 62 63 66 64 54 47 45 48 50 46 46 50 50 50 48 47 47 45 43 41 40 38 37 36 34 32 31 31 31 31 29 26 25 24 22 21 21 20 19 19 19 20 19 18 19 19 21 19 14 14 16 14 15 16 16 15 12 11 11 12
36 35 35 37 40 40 38 37 36 37 39 42 46 49 53 57 57 53 54 53 50 53 54 54 58 57 56 59 63 67 68 62 52 49 44 46 51 48 48 50 51 53 51 48 47 45 45 43 41 39 37 35 33 32 32 33 33 31 29 28 26 24 23 22 23 22 21 21 21 22 22 22 22 23 25 22 19 19 20 19 18 18 18 17 15 13 13 13
37 36 36 36 38 40 38 37 36 37 39 41 45 49 53 57 57 53 54 53 49 52 53 52 54 55 58 60 62 68 68 57 49 51 48 44 51 53 52 51 50 52 52 50 49 47 46 44 40 37 35 34 34 34 34 34 33 30 29 29 27 25 24 24 24 24 23 23 24 24 24 25 25 28 29 24 22 22 23 22 22 22 20 19 18 16 15 15
38 36 36 36 37 40 39 37 36 37 38 41 45 49 52 56 56 53 53 53 49 51 54 55 56 56 60 62 62 68 65 55 48 50 51 45 48 56 55 52 50 49 51 51 49 48 46 42 38 36 35 36 35 34 35 35 31 30 30 29 28 27 26 26 26 26 26 26 26 26 27 27 29 32 31 26 23 23 23 23 23 23 22 21 20 18 17 16
39 37 36 36 36 39 39 37 36 36 38 41 44 48 51 54 56 52 53 53 48 50 56 57 58 59 60 62 62 68 64 55 49 46 52 50 45 52 54 52 52 49 49 50 48 47 44 42 39 37 37 37 37 34 34 35 32 31 32 31 29 29 29 29 27 27 27 28 28 28 30 33 34 34 31 26 24 24 23 23 23 23 23 23 22 20 20 18
39 37 35 35 36 37 39 37 35 35 36 40 44 47 51 53 54 52 52 53 48 50 56 57 60 60 60 62 63 67 63 56 53 46 50 55 46 47 53 52 51 49 46 47 47 45 44 43 41 39 38 37 37 35 33 33 34 33 32 32 30 29 31 30 28 29 29 28 29 28 31 37 36 33 31 29 27 26 26 27 26 25 25 25 25 23 21 20
39 37 35 35 35 36 38 37 35 35 35 39 43 46 50 51 53 52 51 51 48 50 55 56 59 60 60 65 64 65 63 56 57 50 45 53 49 46 53 54 51 49 47 45 46 47 46 43 41 40 39 38 37 35 33 31 32 34 33 32 32 31 32 32 29 30 30 29 30 28 31 37 34 32 34 32 30 30 30 30 30 30 28 28 27 26 24 22
38 37 35 35 35 36 38 37 36 34 34 38 42 45 50 49 50 52 52 50 47 50 55 55 57 59 61 67 65 63 63 58 60 56 44 46 50 48 52 56 53 51 49 47 46 46 45 43 42 42 41 40 38 35 33 32 30 32 33 32 33 33 33 33 31 30 29 29 30 28 30 34 31 30 33 32 32 31 31 31 31 31 30 29 29 28 27 25
38 37 35 35 35 36 37 37 36 34 34 37 40 44 49 49 49 51 52 48 45 50 55 54 55 56 60 68 66 60 61 60 60 57 47 42 46 47 50 55 54 52 51 49 47 43 41 43 43 44 43 41 42 39 33 33 32 33 35 34 33 34 34 34 32 30 29 28 30 30 32 34 31 28 26 26 28 29 29 29 28 29 29 30 30 30 29 27
38 37 36 35 35 36 37 36 36 34 33 36 39 43 47 48 49 51 52 48 44 48 53 55 53 52 58 65 66 63 60 59 58 58 52 42 41 45 48 54 56 52 51 50 47 45 42 44 46 46 46 44 44 42 35 35 38 36 36 36 33 33 35 34 32 30 29 29 30 31 34 37 33 28 22 17 18 22 25 26 26 28 29 30 31 32 31 30
37 37 36 35 34 35 37 36 36 34 33 35 38 41 45 47 48 51 53 49 44 45 49 54 50 47 57 64 64 66 65 59 55 56 56 47 41 43 46 51 56 54 50 49 48 47 46 47 48 46 47 47 46 47 45 44 44 39 38 37 32 31 34 35 33 30 29 30 31 31 35 37 34 31 26 19 17 19 22 25 26 27 29 31 32 33 33 32
37 37 36 34 34 35 37 36 35 35 33 35 38 41 44 46 47 51 54 52 48 47 51 56 54 52 62 68 64 65 66 64 59 52 55 57 47 42 44 48 55 55 51 50 49 50 50 48 47 48 51 54 54 56 55 50 44 41 40 37 34 34 37 37 35 32 29 28 30 31 35 37 32 29 27 25 23 23 24 26 27 27 28 30 32 34 34 33
38 37 36 34 34 35 37 35 34 35 34 37 41 43 47 49 48 52 56 56 53 53 56 59 62 64 66 64 65 66 61 61 65 56 50 59 58 48 45 47 52 56 54 53 52 51 50 49 52 56 59 59 57 55 53 48 42 38 36 34 35 38 39 38 34 33 31 29 31 31 34 36 32 29 27 24 25 27 28 29 29 28 27 28 30 31 33 33
38 38 37 34 34 36 37 35 34 35 36 40 44 46 52 56 55 56 58 57 54 52 54 57 61 67 65 55 59 68 60 48 53 57 54 58 63 58 50 48 50 55 58 56 53 51 49 51 58 60 59 57 55 53 50 46 42 38 35 34 36 38 39 38 34 32 31 32 33 32 34 36 34 31 28 26 28 30 30 30 29 27 25 25 27 28 30 31
38 38 37 34 35 37 36 36 34 36 39 42 46 49 53 56 57 56 56 57 56 52 53 53 54 61 63 55 51 58 60 51 43 45 54 61 64 61 57 55 52 54 58 57 54 50 48 55 61 56 54 54 52 52 49 45 43 41 37 35 37 39 38 36 34 32 30 30 33 33 35 39 36 33 31 29 32 31 29 31 30 27 25 24 25 26 28 29
37 38 36 35 36 36 36 36 35 37 42 45 48 52 51 52 56 53 52 54 54 54 56 55 54 57 62 60 53 48 51 57 55 46 45 56 63 59 58 60 57 53 55 59 59 54 52 61 62 52 50 54 52 50 47 43 43 43 39 36 38 39 36 34 33 32 31 29 31 33 36 41 38 36 36 33 33 33 29 31 32 29 27 25 25 25 26 27
37 37 36 36 36 37 36 34 36 41 45 47 49 51 48 50 56 52 48 47 47 53 58 56 55 57 60 62 59 52 44 46 59 60 49 51 60 58 57 61 59 55 54 58 61 60 60 62 59 52 50 52 50 48 46 43 42 42 41 39 39 38 34 33 30 29 30 29 31 31 33 43 44 39 40 36 34 35 31 32 34 31 29 25 25 27 27 27
37 37 36 37 37 37 35 35 41 44 45 48 48 48 46 50 56 50 45 44 42 48 56 56 55 55 57 61 61 59 50 41 46 61 63 56 56 58 57 58 57 57 57 57 57 59 60 59 55 51 49 49 49 49 49 46 41 40 42 41 38 37 33 31 29 25 25 25 31 29 20 32 45 42 42 39 37 38 34 34 37 34 30 28 27 28 28 27
37 37 37 38 38 37 36 40 44 43 46 49 47 46 46 51 53 49 46 40 36 43 54 59 58 54 54 56 61 60 53 47 40 46 63 59 54 58 58 57 58 57 61 59 53 52 55 57 54 47 46 48 48 49 50 48 44 41 42 40 36 36 32 29 29 25 21 20 26 29 18 24 42 44 42 40 38 39 37 36 39 37 33 31 30 28 27 28
37 38 38 39 39 38 41 43 42 44 49 49 47 45 48 52 51 49 44 27 27 43 51 59 61 58 56 51 57 60 53 53 46 40 54 59 57 61 60 60 58 56 60 54 46 49 53 54 53 47 44 47 49 51 51 49 45 41 40 39 37 37 32 27 27 24 23 21 22 28 25 21 38 49 46 42 39 38 38 38 39 38 35 32 31 28 27 27
38 38 39 40 39 40 42 42 42 47 49 46 45 45 49 54 50 51 41 11 15 43 48 55 63 60 58 51 49 58 60 60 53 44 47 54 59 60 59 63 62 58 58 54 51 56 57 55 56 54 47 48 55 56 52 48 44 38 36 37 36 36 32 27 24 22 21 21 22 28 26 16 30 50 47 43 44 41 39 38 38 38 35 32 30 28 28 28
38 39 40 40 39 41 42 42 44 45 45 44 45 47 50 52 51 51 36 8 12 40 47 51 62 58 56 56 49 52 62 59 52 49 48 48 53 55 55 61 62 57 54 58 59 53 50 54 56 54 49 49 53 52 49 47 43 37 32 34 34 33 33 26 21 22 16 15 22 30 29 16 24 47 48 44 47 43 38 36 36 36 33 30 29 28 29 29
39 40 40 40 41 42 43 45 45 43 44 44 45 51 50 51 57 42 19 13 20 34 45 49 59 61 56 58 54 48 53 51 45 51 54 51 51 52 53 56 59 58 52 55 56 47 46 51 49 47 49 49 46 44 45 44 42 37 29 29 31 30 32 27 22 20 10 12 24 32 35 23 18 39 51 49 48 41 36 34 33 34 32 29 29 29 29 30
40 40 40 42 43 43 45 46 47 44 44 45 46 55 55 53 59 33 7 21 27 28 45 49 53 65 61 60 60 50 46 41 36 46 55 54 53 54 55 54 53 52 51 53 52 46 43 43 44 47 50 49 43 40 40 39 40 38 30 28 26 20 23 21 15 14 6 8 20 29 36 29 21 33 44 47 47 42 39 36 33 32 30 27 27 27 28 30
39 40 40 42 42 43 46 45 46 45 45 50 49 57 60 46 39 27 16 28 26 25 49 51 48 63 65 61 64 59 48 36 31 42 56 56 56 61 60 57 54 44 40 45 44 42 41 42 47 48 47 48 45 39 36 36 40 38 32 31 21 8 8 10 5 5 9 9 10 18 25 27 36 46 47 49 49 43 41 38 34 32 28 26 26 27 28 28
38 39 40 43 43 44 46 42 44 46 46 53 52 58 60 32 18 27 32 33 22 24 48 53 49 60 64 63 65 62 55 40 32 41 56 58 57 63 62 61 63 52 42 45 44 40 34 35 44 44 41 45 46 43 41 39 43 43 39 38 27 9 4 9 6 2 9 11 9 13 16 21 37 44 47 52 50 44 43 39 34 32 29 28 28 28 29 30
38 40 40 42 43 43 44 43 45 47 48 53 56 62 53 20 16 36 41 39 29 28 44 51 51 55 58 66 70 65 60 51 39 38 49 60 61 63 62 61 63 57 49 48 46 44 32 27 44 51 47 48 48 49 49 45 46 47 44 42 37 23 8 6 8 4 3 5 8 14 13 15 22 23 33 42 40 39 40 38 35 32 30 29 28 28 28 29
38 40 41 42 42 42 44 44 46 49 49 54 60 62 46 20 25 43 44 40 33 34 44 47 50 52 51 63 70 66 64 58 50 39 38 54 65 65 64 63 63 56 48 41 37 41 34 26 43 54 50 51 50 49 50 45 42 43 44 42 41 36 18 4 5 9 5 5 7 17 20 27 29 26 29 31 31 30 28 29 31 27 23 23 23 25 26 27
39 41 42 42 42 44 45 44 47 50 52 60 62 56 48 35 33 43 48 43 33 38 48 45 46 50 47 55 61 62 63 56 53 47 36 41 59 69 66 64 68 63 55 48 40 38 33 26 39 49 47 49 49 48 50 46 42 42 43 44 45 42 28 8 3 7 5 3 9 17 26 36 37 36 39 37 34 30 24 24 24 23 24 22 20 20 22 24
41 41 42 44 44 44 46 45 49 52 54 62 61 52 52 47 36 39 49 48 35 36 49 46 42 46 46 49 52 57 61 53 48 49 44 35 41 62 69 62 67 70 64 59 50 47 43 31 35 45 48 51 50 46 49 50 48 44 44 48 45 37 30 18 4 2 2 4 8 15 26 30 25 28 35 38 41 39 34 32 30 32 34 28 22 20 19 20
40 40 41 45 46 47 49 48 51 56 56 60 59 52 54 51 38 37 45 48 39 37 47 46 40 44 48 49 50 54 59 55 47 45 47 39 29 47 67 61 59 68 69 60 49 49 45 26 22 37 46 47 45 43 44 46 50 49 47 50 42 25 20 21 10 2 4 4 4 10 19 24 31 36 31 29 34 32 28 29 28 30 34 33 29 24 20 19
39 41 43 47 50 51 52 51 54 58 58 59 57 49 50 50 40 36 42 47 41 39 46 45 40 44 48 50 51 54 57 59 56 46 44 40 30 37 59 61 55 61 66 60 48 47 46 26 19 35 45 43 44 46 47 47 49 48 43 45 45 32 24 28 23 12 6 4 6 7 7 20 46 54 44 40 38 28 22 23 20 18 22 28 30 28 24 20
41 42 45 47 50 52 52 53 55 58 59 61 59 50 47 49 43 37 42 46 42 41 44 44 44 46 48 50 50 53 56 59 62 54 44 41 35 37 51 57 56 59 62 58 48 43 44 33 23 31 41 44 46 51 55 56 54 51 45 43 48 44 35 32 31 26 16 6 5 5 7 27 45 43 40 44 44 41 36 34 29 22 18 18 22 27 28 25
42 41 43 46 50 52 53 54 54 56 59 60 59 52 45 46 45 39 42 46 42 40 40 41 44 46 49 51 49 49 52 56 60 55 47 44 40 39 48 55 57 59 60 58 50 39 38 38 31 32 38 45 51 56 60 61 60 60 59 56 55 52 41 24 18 27 30 18 10 4 8 32 40 26 22 23 23 28 30 31 35 33 28 24 21 22 24 25
41 40 43 47 51 53 55 56 55 56 59 58 56 53 44 40 43 42 42 46 45 40 38 40 41 43 47 51 50 49 49 53 57 54 48 48 45 43 49 54 58 60 61 61 56 46 41 40 34 33 40 45 48 52 55 54 55 58 58 58 55 50 44 28 15 21 28 24 20 8 9 33 41 26 23 21 17 20 21 23 30 31 33 33 29 25 21 20
43 41 43 49 53 56 57 58 58 57 58 58 54 49 43 39 41 41 42 46 47 43 41 40 40 40 44 47 49 50 49 48 54 57 51 48 50 49 47 50 56 58 60 62 59 48 39 36 31 29 35 41 40 47 54 52 52 53 51 51 49 47 50 44 32 27 22 22 25 11 9 39 50 37 37 37 33 33 30 29 28 26 27 29 30 31 27 23
50 45 45 52 55 59 61 59 59 55 52 53 49 43 42 40 39 41 42 43 46 45 43 42 42 41 42 43 46 50 50 44 46 55 55 49 52 53 46 46 54 59 61 62 61 54 42 36 34 25 17 20 21 26 38 44 47 50 50 50 49 49 51 47 42 33 21 27 33 15 14 48 57 44 42 42 39 38 33 31 31 26 23 21 24 28 27 25
54 47 46 51 50 56 62 61 61 56 48 46 44 41 41 41 38 39 40 41 44 45 43 42 42 42 41 42 46 51 53 49 43 48 54 52 52 55 50 45 50 59 65 62 63 64 52 42 43 32 14 10 15 22 37 49 54 55 55 55 54 54 53 51 49 37 26 36 41 27 33 58 57 44 40 33 29 29 25 26 29 26 23 22 21 21 21 22
54 50 49 48 46 50 54 54 59 60 52 44 39 37 38 38 38 37 36 37 39 42 42 40 40 40 38 39 42 46 52 56 50 45 52 55 52 54 54 51 50 55 62 61 59 61 54 45 48 49 41 40 45 50 59 63 60 56 58 62 63 63 63 61 54 44 43 47 45 47 60 63 51 43 37 26 20 21 22 25 26 24 24 24 23 22 22 22
53 53 52 47 44 46 45 43 48 54 54 46 37 34 36 36 36 36 34 34 35 37 38 39 40 40 36 35 37 37 42 53 54 48 51 58 58 55 53 54 55 54 56 61 60 55 50 45 48 53 55 59 57 51 51 56 56 57 60 63 65 65 65 64 58 57 60 47 37 53 70 64 52 41 28 21 21 22 22 21 21 22 23 24 25 26 26 26
54 55 53 48 45 45 46 43 43 47 47 43 37 36 37 37 35 34 34 33 33 35 35 36 40 43 39 35 34 32 30 37 43 44 50 57 57 55 53 53 57 57 56 59 61 56 48 47 53 56 56 59 53 43 43 49 55 60 62 63 65 62 61 64 64 67 67 50 43 60 67 62 60 48 31 24 21 18 20 20 20 22 23 25 27 29 30 29
58 56 51 47 42 46 51 48 45 46 45 42 37 34 34 35 33 33 34 32 31 33 35 36 39 43 43 38 34 32 29 28 28 32 45 56 56 53 50 49 52 57 58 60 63 58 50 50 54 54 53 54 49 43 44 45 49 57 60 60 63 61 60 63 65 69 68 57 59 66 61 58 62 58 52 43 27 20 22 22 24 26 26 29 32 33 31 28
59 57 54 47 38 40 47 46 45 46 45 42 39 33 31 31 29 28 30 30 29 30 34 37 39 41 42 41 38 36 34 33 29 27 37 50 55 55 52 50 51 55 57 61 64 59 51 49 50 48 47 47 46 45 45 42 44 52 56 57 58 56 55 58 61 66 63 57 60 62 58 62 66 63 63 58 44 37 33 27 28 30 30 32 33 32 30 27
55 55 56 51 40 36 40 40 40 42 41 40 38 35 33 30 27 25 24 24 25 26 29 32 34 35 36 37 37 38 36 36 36 34 32 35 43 48 48 48 51 56 60 61 62 61 54 48 47 44 38 38 43 46 46 44 43 49 55 55 52 51 53 59 65 68 67 64 65 65 64 69 72 68 65 62 57 54 48 40 35 33 31 32 33 32 32 33
50 51 54 52 44 38 38 38 37 37 37 37 36 35 34 31 28 25 23 21 20 21 23 26 28 29 29 29 31 34 35 34 36 38 36 33 34 36 37 36 39 48 59 62 60 58 56 52 48 41 32 34 42 47 51 46 35 38 53 58 56 58 60 64 70 73 73 71 69 70 72 72 70 69 68 65 63 63 60 53 45 41 39 39 39 39 38 40
Wind_Direction
244 242 240 242 243 242 240 236 233 227 217 214 215 216 217 217 218 217 218 219 220 225 230 227 220 212 213 215 216 216 215 217 218 219 218 216 216 212 211 210 208 208 210 211 211 212 214 217 219 221 224 227 230 232 232 230 229 229 229 230 231 229 226 225 222 223 223 221 239 255 257 258 258 263 268 272 278 279 278 268 235 207 213 220 213 216 221 218
243 241 240 240 242 242 240 236 232 227 218 213 214 215 216 217 218 217 218 220 219 223 227 228 222 216 216 214 214 216 217 219 220 222 218 214 215 212 211 210 209 209 210 212 211 212 214 217 220 221 223 227 230 232 232 230 228 228 229 232 232 229 226 224 227 229 229 233 241 247 251 252 252 255 261 270 277 279 280 275 256 228 221 226 219 223 227 221
243 240 239 239 240 241 239 235 231 227 218 212 213 214 215 216 218 217 217 220 219 220 225 228 226 221 219 211 212 216 217 219 221 223 218 212 213 212 211 211 209 209 210 212 212 212 215 218 221 223 224 225 228 230 231 230 229 228 229 233 233 232 228 225 229 234 236 241 242 240 245 246 245 246 253 264 270 273 277 276 271 253 230 227 231 234 230 221
243 240 237 238 239 239 239 236 230 226 218 212 212 213 213 215 217 217 217 219 219 220 222 226 228 225 221 212 212 216 216 220 224 223 216 212 214 212 211 211 210 210 210 211 211 211 212 216 219 222 225 226 227 228 230 231 230 230 231 234 236 234 230 227 230 237 240 242 242 238 236 241 243 244 250 257 264 275 282 277 274 264 248 235 234 236 233 225
244 241 237 237 238 238 237 236 230 224 218 213 211 212 212 213 216 216 216 218 220 220 221 224 227 226 224 220 217 217 217 222 226 221 214 213 213 212 212 212 211 210 211 211 210 210 210 214 216 218 223 225 228 228 228 231 231 232 233 234 236 235 231 230 234 238 240 240 240 239 233 236 241 244 250 256 265 281 280 266 263 263 261 254 243 234 232 231
244 241 238 236 237 237 235 234 230 223 218 213 211 211 210 212 214 215 215 217 220 221 222 224 226 227 227 228 227 222 220 221 224 221 212 212 212 211 211 211 211 210 210 211 210 210 210 212 214 216 219 222 226 228 229 231 232 234 234 234 234 235 232 231 235 238 240 240 240 240 234 231 237 244 249 254 264 277 270 264 263 262 263 258 251 244 237 232
243 241 239 236 236 237 234 233 231 224 218 213 211 210 209 211 213 214 212 214 219 221 223 225 227 229 229 232 231 226 223 219 220 220 211 209 212 212 211 211 212 211 210 211 211 211 210 211 213 215 218 220 224 226 228 231 233 235 235 235 235 236 234 233 236 238 239 241 240 238 234 231 235 241 246 250 255 264 265 267 267 265 264 260 258 255 243 232
241 241 240 237 235 237 235 233 231 225 220 214 210 209 208 210 212 212 210 211 216 218 222 226 228 229 227 229 231 227 223 219 217 220 213 207 210 212 210 211 212 212 212 211 211 211 211 213 214 215 217 221 223 225 227 228 231 234 236 236 235 236 236 236 238 239 239 240 238 236 236 235 236 240 244 246 250 257 261 264 266 266 265 262 260 257 248 238
240 239 239 238 235 235 235 233 231 226 221 215 210 208 207 209 211 210 208 208 211 212 215 221 224 226 224 226 231 230 223 216 215 221 218 207 209 211 211 212 211 212 212 212 212 211 212 214 214 216 219 223 225 226 228 229 230 234 238 237 235 237 236 237 239 239 241 240 239 237 238 238 239 243 246 246 249 255 259 262 265 266 264 261 258 255 250 242
239 238 238 238 235 233 234 233 231 226 221 216 211 209 207 208 210 209 206 206 209 208 208 213 216 219 220 220 227 231 224 214 213 219 219 211 208 211 212 211 212 212 212 212 212 212 213 214 214 217 221 225 227 227 229 231 233 237 239 238 236 237 237 237 238 238 239 240 240 240 240 240 242 246 247 246 248 254 259 263 265 265 263 261 255 250 247 242
238 236 236 238 236 232 231 231 230 227 222 218 213 209 207 207 209 208 204 204 207 206 205 208 211 213 217 217 222 231 226 215 213 215 217 214 209 212 213 212 212 212 213 213 213 214 214 214 214 216 219 224 226 228 232 233 235 237 238 238 236 237 238 237 236 236 237 238 239 240 241 240 240 245 246 245 247 253 258 261 263 263 262 260 256 250 244 240
237 235 235 237 236 232 229 230 230 227 223 218 213 210 208 208 209 207 203 203 206 204 202 205 208 211 216 217 221 232 230 219 216 217 217 216 212 213 214 214 214 214 216 216 215 214 214 214 212 214 219 223 225 227 232 234 234 236 237 237 236 236 238 237 235 236 236 237 238 239 242 240 238 244 247 245 247 251 255 257 257 259 261 260 257 252 245 238
235 234 234 236 235 232 228 228 229 227 223 217 214 210 209 209 208 206 203 202 206 204 202 203 206 209 214 217 222 229 231 224 219 219 216 213 212 212 213 213 215 215 217 218 218 216 216 215 213 214 219 223 225 227 230 231 231 232 234 236 235 235 237 235 234 236 236 237 237 239 245 243 240 246 249 247 247 249 252 254 254 257 259 258 256 254 248 242
233 233 232 234 234 231 228 227 228 226 222 217 214 210 210 210 207 205 202 202 205 205 203 203 204 208 211 217 222 225 228 227 221 220 214 210 208 209 210 210 211 213 215 215 216 215 214 215 213 213 218 222 224 227 229 231 231 230 232 234 232 231 234 234 233 235 235 237 238 239 246 247 243 246 249 249 250 251 252 253 255 256 256 254 253 253 251 247
231 230 229 232 233 231 227 226 226 225 221 215 213 210 210 211 207 203 201 202 205 205 204 204 204 207 212 216 220 223 226 226 224 220 211 206 207 207 208 208 208 210 212 214 215 213 210 211 213 213 215 220 223 226 228 229 231 229 227 230 230 229 234 236 235 235 236 239 240 239 246 249 248 247 248 250 251 252 253 252 253 253 253 251 250 250 250 249
229 228 227 229 231 230 226 225 225 223 220 215 212 210 209 211 207 201 201 202 204 203 203 206 205 205 212 216 217 220 223 224 223 219 210 204 204 205 207 207 207 208 210 213 216 216 210 209 213 214 215 217 221 224 225 227 229 228 225 226 227 228 233 237 237 236 236 239 242 242 246 249 250 252 253 252 249 249 251 251 251 252 252 250 248 248 248 248
230 228 227 227 229 229 225 223 223 220 218 213 211 210 208 210 208 201 202 202 204 204 204 207 206 206 213 217 217 218 220 221 221 218 210 200 198 202 205 206 206 206 208 209 212 215 214 211 211 212 214 216 219 220 219 221 222 221 222 223 227 231 232 236 239 238 236 237 241 244 247 247 247 249 252 247 237 238 244 248 249 251 252 250 248 246 245 244
229 228 227 227 228 227 224 222 220 218 215 210 209 208 206 210 209 203 202 202 203 204 205 207 204 205 213 216 217 218 220 220 219 218 213 203 194 196 203 207 206 205 205 207 208 211 214 213 210 209 211 214 216 216 215 218 218 216 217 217 219 227 232 235 238 239 239 238 240 244 248 249 247 247 245 242 241 241 242 246 249 249 249 248 245 244 242 241
228 227 226 225 225 224 221 220 218 216 212 207 206 206 205 208 210 204 201 203 204 200 202 206 201 201 211 214 215 218 221 222 219 217 216 211 199 192 199 206 208 206 203 204 206 208 213 211 207 207 209 211 214 216 218 221 221 221 220 218 218 225 232 235 237 239 241 243 243 244 249 253 254 252 247 245 253 254 249 248 249 249 249 246 242 240 239 239
226 225 224 223 222 221 219 217 215 213 209 204 203 203 204 204 206 204 202 205 206 201 201 206 203 203 209 213 215 217 220 223 224 222 218 213 205 196 195 199 204 206 205 205 205 208 213 211 210 211 211 212 214 217 220 222 224 225 223 222 226 231 235 236 238 240 242 245 247 247 252 257 258 255 248 244 248 250 250 250 249 251 252 248 241 237 237 238
224 224 222 220 220 218 216 213 212 211 206 203 203 205 204 202 202 202 201 205 208 204 204 206 205 206 208 210 215 217 216 217 222 225 221 213 208 202 196 195 198 202 205 206 206 207 210 213 216 218 215 213 214 216 218 220 222 225 224 224 229 234 238 240 240 242 243 245 249 251 255 258 256 253 249 244 244 245 249 251 251 251 252 248 241 234 234 237
224 224 220 217 218 216 214 211 209 209 206 203 204 208 207 202 200 200 200 205 206 204 207 208 206 208 209 210 213 215 216 214 210 215 215 210 208 205 199 197 198 199 201 204 206 205 207 215 219 219 217 215 213 215 216 218 221 224 225 225 230 234 237 239 240 240 241 245 250 255 258 258 257 255 252 247 245 246 249 252 251 249 248 244 240 237 236 237
224 223 219 215 215 214 213 210 206 207 207 204 204 208 207 200 199 201 202 207 208 204 206 208 208 209 210 211 212 211 215 219 214 211 211 208 208 206 201 199 200 201 199 200 205 204 206 216 219 217 217 214 212 213 214 215 218 222 223 222 228 233 233 233 236 238 239 244 251 255 259 260 258 257 253 247 247 250 249 251 250 245 243 241 240 241 239 238
222 221 217 213 213 212 210 208 205 206 207 206 206 207 205 198 198 202 203 208 213 207 205 207 208 210 211 212 213 212 214 221 220 218 215 208 204 204 203 202 201 203 202 201 205 207 210 216 216 214 215 213 210 212 212 212 214 219 222 223 227 232 233 233 236 238 238 242 248 254 264 264 259 257 253 247 248 251 248 249 249 244 242 242 241 240 238 238
220 219 215 212 212 209 208 208 206 204 206 209 207 205 202 198 199 201 202 208 214 209 206 207 208 210 212 212 213 214 215 221 223 221 220 215 209 205 203 204 203 203 205 204 205 209 213 217 217 214 212 210 210 212 212 212 212 217 222 224 228 232 234 236 235 234 236 238 242 246 263 267 261 258 252 249 250 250 248 247 248 245 244 246 245 242 240 240
218 216 214 212 210 207 207 210 207 202 205 209 206 202 199 198 199 200 202 210 217 210 204 206 208 209 209 210 212 213 216 221 222 220 219 218 217 211 203 202 204 206 208 206 206 210 213 217 218 215 211 208 209 213 214 213 212 216 221 220 225 232 235 237 234 231 232 235 240 240 241 263 267 263 256 256 256 252 248 245 245 244 244 248 249 248 246 245
216 214 213 211 208 206 207 209 206 202 206 207 202 198 196 196 198 199 201 212 223 214 205 203 206 207 207 207 209 209 212 218 217 215 214 212 211 208 201 199 202 207 208 204 204 211 212 214 216 215 211 206 207 212 213 212 211 216 221 218 222 229 232 235 233 231 237 240 243 243 240 254 266 264 259 259 257 253 248 243 242 243 244 248 251 252 252 252
214 213 212 209 207 208 209 209 206 204 206 204 199 198 195 194 195 197 200 211 217 211 208 203 202 205 207 206 206 207 211 215 213 210 207 205 205 204 202 202 203 205 206 201 204 211 211 211 212 212 208 207 212 214 212 210 210 216 221 219 223 228 229 231 231 230 239 246 246 243 238 241 259 260 260 261 258 253 247 241 238 241 245 248 250 251 253 252
213 212 210 207 207 209 210 211 208 205 206 202 198 197 194 193 192 193 201 213 188 202 208 205 202 203 205 206 205 204 209 215 217 214 207 203 206 208 208 207 206 206 206 206 208 211 212 214 215 212 208 210 215 214 213 212 211 215 220 220 222 225 227 228 231 233 235 244 243 238 233 232 259 260 257 259 258 250 242 239 238 239 243 248 250 252 252 250
212 211 209 206 207 208 209 210 208 205 205 202 197 194 194 191 187 187 204 205 178 190 202 203 203 204 202 204 205 198 198 205 213 215 210 206 208 212 214 210 206 205 205 207 210 211 215 217 217 216 215 217 217 214 215 215 213 215 216 218 220 224 228 229 232 232 233 248 241 236 234 232 259 263 255 253 254 250 246 244 240 239 242 249 254 257 255 250
211 210 208 206 208 208 208 209 207 202 202 201 194 192 196 191 185 187 207 197 185 182 196 200 202 205 203 203 205 200 192 188 195 204 202 201 203 205 207 204 199 201 202 201 203 210 214 213 213 218 221 221 218 215 216 216 214 214 210 210 214 217 223 226 228 222 222 258 241 234 234 229 238 254 254 253 254 253 251 246 240 241 243 249 254 258 256 252
210 209 208 208 209 208 208 209 205 202 199 198 194 192 194 189 186 192 183 191 193 181 192 198 199 202 205 205 206 205 201 187 177 191 196 197 198 199 203 202 194 192 194 192 193 202 209 211 212 215 218 218 216 209 207 211 213 213 207 201 199 187 204 216 206 208 224 237 232 222 218 222 238 247 251 254 255 255 252 248 247 248 247 248 251 251 250 249
209 208 208 208 210 209 209 208 204 205 200 196 195 193 193 192 192 190 180 185 188 175 192 201 201 202 204 205 208 208 209 202 180 183 194 197 196 198 203 206 201 196 191 186 184 189 199 209 210 207 208 215 216 204 196 199 205 209 205 197 193 176 168 209 193 189 232 227 218 199 195 226 246 251 253 253 256 259 256 252 251 250 249 253 254 251 245 242
209 208 207 209 211 208 208 207 204 205 201 197 194 191 192 198 190 187 187 187 180 175 194 202 201 201 203 206 209 208 210 212 201 186 188 193 193 195 200 204 204 201 195 186 183 184 182 192 204 205 205 209 213 212 209 206 202 206 206 201 200 197 191 213 201 195 211 183 180 177 184 234 243 248 254 254 256 260 257 253 251 252 255 259 256 250 245 241
208 208 207 209 211 207 205 207 204 202 201 198 192 189 192 196 186 190 194 190 177 178 194 202 200 197 200 207 210 210 210 213 212 201 191 192 193 194 197 199 201 199 192 184 182 188 187 192 204 207 209 209 208 211 215 210 201 204 206 205 208 208 211 238 210 209 185 124 180 189 206 236 238 242 249 249 253 253 250 248 246 248 256 260 254 245 243 243
208 208 209 210 208 205 203 203 202 200 199 197 190 188 194 196 191 194 196 192 182 178 185 194 197 191 195 206 209 211 213 214 215 212 207 198 195 197 197 197 199 198 194 190 183 185 194 206 208 203 206 214 213 210 210 208 204 202 202 206 212 212 213 222 211 202 176 200 231 212 224 239 244 250 247 241 244 241 233 235 237 247 261 264 256 245 243 242
209 208 209 209 205 204 203 200 197 196 196 194 189 188 195 197 196 194 193 193 190 183 181 184 191 190 192 202 206 209 211 214 218 217 215 210 202 200 198 198 200 199 199 198 191 190 197 204 205 201 203 211 217 214 210 212 213 207 204 208 211 212 215 216 206 100 144 251 245 223 234 241 243 250 247 242 245 245 243 247 253 260 264 263 257 249 248 245
209 208 210 209 204 202 201 197 194 193 193 193 191 190 195 198 197 192 190 192 190 186 183 182 187 192 194 199 203 206 207 209 215 217 217 218 214 202 198 199 201 201 202 202 198 199 200 193 194 204 207 207 207 207 204 208 213 214 216 216 209 205 209 207 201 175 201 242 281 240 242 245 240 240 239 238 246 250 251 254 261 264 258 253 251 249 249 246
207 207 213 213 205 200 196 192 191 192 193 195 195 195 197 198 197 192 189 191 191 189 186 185 188 193 197 201 202 203 205 207 210 213 216 218 219 206 200 200 200 201 201 200 200 203 201 193 186 199 205 201 197 198 198 200 207 213 220 217 209 208 210 209 211 215 201 209 268 262 254 251 247 245 243 241 243 245 246 250 259 266 258 249 244 243 245 248
207 211 215 212 202 194 190 188 191 193 193 196 199 200 201 200 198 192 187 188 190 190 187 187 190 193 199 204 204 203 204 207 209 211 214 217 218 212 205 200 200 201 199 197 201 203 200 200 191 187 195 196 193 198 202 203 202 204 208 207 206 207 209 213 217 218 216 214 243 253 261 255 253 253 252 249 249 249 251 255 257 259 260 253 244 240 240 242
211 214 211 206 197 188 185 187 192 195 194 196 199 201 203 202 198 193 189 187 188 190 189 189 192 195 199 203 205 204 204 207 210 210 213 215 215 215 210 202 200 201 197 195 200 202 199 202 195 181 186 194 199 204 210 211 206 204 205 204 205 203 199 204 214 215 218 221 223 213 263 257 255 255 252 248 250 253 254 255 253 250 249 250 252 246 236 234
214 211 205 202 194 185 183 188 194 196 196 196 198 200 201 199 196 194 192 190 190 192 191 191 194 196 199 202 205 205 203 207 210 210 213 215 214 217 216 208 203 202 198 196 200 202 202 202 193 182 186 195 203 207 209 212 212 211 209 208 207 202 198 201 206 211 215 223 234 244 279 261 256 255 253 248 245 249 250 247 246 244 241 242 245 245 238 232
213 206 196 190 187 186 186 188 191 192 194 197 198 199 200 197 193 194 193 191 193 195 195 195 196 198 199 202 206 207 205 207 211 211 214 217 216 219 221 214 208 204 200 199 199 198 200 199 186 177 187 195 200 205 208 210 212 212 212 210 208 204 205 209 213 218 215 218 230 238 270 258 255 257 259 259 256 253 250 247 247 247 244 242 241 242 243 243
207 203 188 176 177 185 187 187 187 184 188 195 195 195 198 198 195 194 194 193 194 196 198 199 200 202 203 204 207 210 208 209 212 213 214 218 219 219 220 217 212 205 203 205 202 198 199 198 187 173 179 194 194 199 206 207 208 210 212 212 211 210 210 210 215 223 225 226 226 218 247 254 254 256 257 259 260 257 253 248 245 246 245 242 240 241 243 245
201 196 182 173 173 181 185 188 188 184 183 189 189 189 192 193 193 194 195 196 197 197 199 199 201 203 204 205 207 209 211 211 212 213 213 217 221 220 218 219 215 209 209 211 208 204 203 198 192 184 171 178 186 196 204 204 205 208 211 212 211 211 209 209 212 215 222 229 224 214 235 247 250 253 254 254 255 253 249 243 240 240 240 238 238 241 241 240
194 183 173 173 177 181 183 187 190 188 187 187 182 181 185 186 188 192 194 196 197 198 200 200 201 202 202 204 205 205 208 210 213 214 213 215 219 219 217 218 219 216 213 212 209 206 204 202 201 198 197 200 203 207 209 205 201 202 206 210 212 211 211 211 210 209 216 225 223 222 232 241 244 247 248 242 234 234 236 238 238 237 237 236 236 239 242 242
186 177 171 172 176 181 182 183 188 190 191 191 183 179 184 187 187 189 193 197 198 198 201 203 203 203 202 203 205 206 204 204 209 215 216 215 217 219 218 217 218 221 217 213 212 208 203 205 208 207 210 213 212 212 211 205 202 204 207 210 212 211 210 210 210 214 217 220 223 227 231 236 239 241 242 233 226 229 234 237 238 236 233 232 235 237 239 238
177 173 174 173 172 179 183 183 187 188 189 191 185 181 185 188 188 189 192 197 201 201 203 204 205 208 210 210 211 213 208 199 201 208 213 212 212 214 214 213 215 218 216 212 214 212 207 209 212 212 216 218 217 218 215 208 208 211 211 212 213 212 210 210 214 219 220 220 227 231 232 235 237 236 235 231 222 222 231 231 233 234 229 225 226 228 230 227
174 171 173 175 174 178 182 184 187 188 189 190 186 182 185 186 187 191 192 194 200 204 207 209 209 210 214 219 221 222 220 211 203 202 205 208 210 210 209 207 208 211 210 211 214 213 210 214 215 214 217 219 217 220 220 214 211 214 215 215 215 214 213 214 218 222 223 225 231 235 237 240 240 240 239 236 224 215 225 226 225 226 223 220 218 217 219 220
173 172 173 176 175 177 179 179 182 185 188 190 188 185 187 188 186 188 192 195 197 201 207 211 214 214 216 221 225 227 228 227 223 212 203 202 205 207 209 209 208 205 204 208 214 214 211 215 217 213 216 219 216 217 221 218 213 214 216 217 216 215 215 216 221 224 226 228 232 237 241 243 242 243 244 243 236 231 230 225 222 221 218 216 215 214 217 222
176 177 178 178 176 176 178 176 178 181 183 186 186 184 185 189 189 187 188 193 200 204 205 210 215 219 222 224 226 229 231 231 231 231 226 214 205 203 205 208 209 207 204 206 213 214 211 215 217 213 215 219 215 215 219 219 217 217 216 215 214 214 215 218 221 224 225 226 229 233 238 242 243 243 245 245 243 240 237 229 222 218 217 218 221 223 227 235
180 181 183 183 178 175 180 180 179 182 183 184 187 186 184 185 186 187 184 181 192 204 207 211 214 216 221 224 226 230 233 235 236 239 244 243 233 226 224 219 212 206 203 205 213 214 210 212 216 213 212 218 217 216 218 217 216 215 214 214 214 215 218 220 223 225 225 225 226 230 236 243 245 243 244 246 245 245 244 239 232 227 228 233 237 238 239 247
Height
3012 3014 3016 3017 3019 3021 3024 3027 3031 3034 3038 3043 3047 3051 3055 3060 3064 3069 3074 3078 3083 3087 3091 3099 3105 3109 3112 3116 3120 3123 3125 3125 3127 3126 3125 3132 3142 3149 3149 3151 3154 3156 3157 3159 3161 3163 3166 3168 3171 3173 3174 3175 3177 3178 3179 3181 3182 3182 3182 3182 3182 3182 3184 3185 3186 3187 3187 3188 3188 3188 3188 3189 3189 3189 3189 3189 3189 3189 3190 3190 3190 3190 3190 3190 3189 3190 3190 3191
3008 3010 3012 3014 3015 3017 3020 3024 3027 3030 3034 3038 3042 3046 3051 3055 3060 3065 3070 3073 3079 3084 3088 3094 3101 3105 3109 3113 3116 3120 3122 3123 3123 3121 3124 3136 3142 3143 3144 3148 3151 3153 3155 3156 3159 3162 3165 3167 3169 3171 3172 3173 3175 3176 3178 3179 3180 3181 3181 3180 3180 3181 3183 3184 3185 3186 3186 3187 3188 3188 3188 3188 3189 3189 3189 3189 3189 3189 3189 3190 3190 3190 3190 3189 3189 3189 3189 3191
3004 3006 3008 3010 3012 3014 3017 3020 3023 3026 3030 3034 3037 3042 3046 3051 3056 3060 3066 3069 3074 3080 3083 3089 3096 3101 3106 3109 3112 3116 3118 3120 3117 3114 3124 3135 3136 3138 3142 3145 3148 3150 3152 3154 3158 3161 3164 3166 3167 3168 3169 3171 3172 3174 3175 3177 3178 3179 3179 3179 3179 3181 3182 3183 3184 3185 3185 3186 3187 3187 3187 3188 3188 3188 3188 3188 3189 3189 3189 3189 3189 3190 3189 3189 3189 3189 3189 3190
3000 3002 3004 3006 3008 3010 3013 3017 3020 3022 3025 3029 3033 3037 3042 3047 3051 3055 3061 3065 3069 3074 3079 3085 3091 3097 3102 3105 3108 3112 3115 3115 3108 3110 3125 3131 3131 3136 3140 3142 3146 3148 3150 3153 3156 3158 3161 3163 3164 3166 3167 3169 3170 3171 3173 3175 3176 3176 3177 3178 3179 3180 3181 3182 3183 3183 3184 3185 3186 3186 3186 3187 3187 3187 3187 3188 3188 3188 3189 3189 3189 3189 3189 3189 3189 3189 3189 3189
2996 2998 3000 3003 3005 3007 3010 3013 3016 3019 3022 3025 3029 3033 3037 3042 3046 3051 3056 3060 3064 3070 3075 3080 3086 3093 3098 3102 3105 3108 3112 3109 3102 3110 3124 3126 3129 3135 3137 3140 3143 3145 3148 3150 3153 3155 3157 3159 3161 3163 3164 3166 3168 3169 3171 3173 3174 3174 3175 3177 3178 3179 3180 3181 3181 3182 3183 3183 3184 3185 3185 3186 3186 3186 3186 3187 3187 3188 3188 3188 3188 3188 3189 3189 3188 3188 3188 3189
2992 2994 2997 2999 3001 3004 3006 3009 3013 3016 3018 3021 3025 3029 3033 3037 3042 3047 3051 3056 3060 3066 3071 3076 3082 3088 3094 3099 3101 3103 3105 3100 3098 3111 3120 3123 3128 3132 3135 3138 3140 3143 3145 3147 3149 3151 3153 3155 3157 3159 3161 3163 3165 3167 3170 3171 3172 3172 3173 3175 3176 3177 3178 3179 3179 3180 3181 3182 3183 3183 3184 3185 3185 3185 3185 3185 3186 3187 3187 3187 3187 3187 3188 3188 3188 3188 3188 3188
2988 2990 2993 2995 2998 3000 3003 3006 3009 3013 3015 3018 3022 3025 3030 3034 3038 3043 3048 3053 3057 3062 3067 3072 3078 3085 3091 3096 3097 3098 3096 3093 3099 3109 3116 3121 3126 3129 3132 3135 3137 3139 3141 3143 3145 3147 3149 3151 3153 3156 3159 3160 3162 3166 3168 3169 3169 3170 3171 3173 3175 3176 3177 3178 3178 3178 3179 3180 3181 3182 3182 3183 3183 3183 3183 3184 3185 3186 3186 3186 3187 3187 3187 3187 3188 3188 3188 3188
2984 2986 2988 2991 2994 2996 2999 3002 3006 3009 3012 3014 3018 3022 3026 3030 3034 3040 3045 3050 3053 3058 3063 3068 3075 3082 3089 3091 3090 3092 3087 3088 3101 3108 3113 3119 3122 3126 3129 3130 3133 3135 3137 3140 3142 3145 3147 3148 3151 3154 3156 3158 3161 3164 3166 3166 3166 3167 3169 3171 3173 3173 3175 3176 3176 3177 3177 3178 3179 3180 3181 3181 3182 3181 3181 3182 3184 3185 3185 3185 3186 3186 3186 3186 3187 3187 3188 3188
2980 2982 2985 2987 2990 2993 2996 2999 3002 3006 3009 3012 3015 3018 3022 3026 3031 3036 3041 3047 3051 3054 3059 3066 3072 3079 3086 3086 3086 3085 3079 3088 3103 3107 3111 3116 3119 3122 3124 3125 3129 3131 3134 3137 3140 3143 3144 3145 3149 3152 3155 3158 3160 3161 3163 3163 3163 3165 3168 3169 3170 3172 3174 3174 3174 3175 3176 3177 3177 3178 3179 3180 3180 3179 3179 3181 3183 3183 3183 3184 3184 3185 3185 3186 3186 3186 3187 3187
2975 2978 2981 2983 2986 2989 2992 2995 2999 3003 3006 3009 3011 3015 3018 3023 3028 3033 3038 3044 3048 3051 3056 3063 3069 3076 3081 3082 3082 3076 3075 3091 3102 3104 3109 3113 3115 3117 3119 3122 3126 3128 3131 3134 3137 3139 3141 3144 3149 3153 3156 3157 3158 3159 3160 3161 3162 3165 3166 3166 3168 3170 3171 3172 3172 3173 3174 3175 3175 3176 3177 3177 3178 3176 3176 3179 3181 3181 3181 3182 3182 3183 3184 3184 3185 3186 3186 3186
2971 2974 2977 2979 2982 2985 2988 2992 2995 2999 3003 3006 3009 3011 3015 3019 3024 3029 3035 3041 3045 3049 3054 3061 3066 3072 3075 3077 3077 3069 3075 3092 3097 3100 3106 3109 3111 3113 3116 3120 3123 3126 3129 3132 3134 3138 3141 3145 3149 3151 3153 3153 3155 3157 3157 3159 3162 3164 3164 3164 3166 3167 3168 3169 3170 3171 3172 3172 3173 3174 3174 3174 3174 3172 3173 3178 3179 3179 3179 3180 3180 3181 3182 3183 3183 3184 3185 3186
2966 2970 2973 2975 2978 2981 2985 2988 2992 2996 3000 3003 3006 3008 3012 3016 3020 3026 3032 3038 3042 3047 3052 3058 3063 3068 3072 3072 3070 3067 3076 3091 3094 3096 3101 3105 3109 3112 3116 3120 3122 3125 3128 3131 3134 3137 3141 3143 3146 3148 3149 3150 3153 3155 3154 3157 3160 3161 3161 3161 3162 3164 3164 3165 3168 3168 3169 3170 3171 3172 3171 3169 3169 3169 3172 3177 3177 3177 3178 3178 3178 3179 3180 3181 3181 3182 3183 3184
2962 2965 2969 2971 2974 2977 2981 2984 2988 2992 2996 3000 3003 3006 3009 3013 3018 3023 3029 3034 3039 3044 3049 3054 3059 3064 3068 3065 3065 3068 3076 3087 3092 3092 3094 3100 3106 3110 3114 3118 3121 3125 3127 3130 3133 3136 3139 3141 3144 3145 3146 3148 3151 3152 3152 3154 3157 3158 3158 3158 3159 3160 3160 3163 3165 3165 3167 3167 3168 3169 3166 3163 3166 3168 3170 3174 3175 3175 3175 3175 3176 3177 3178 3178 3179 3180 3181 3182
2958 2961 2965 2968 2970 2974 2977 2981 2985 2988 2993 2997 3000 3004 3006 3010 3015 3020 3027 3032 3037 3042 3045 3050 3055 3059 3061 3059 3062 3067 3073 3082 3086 3088 3090 3094 3100 3105 3109 3112 3116 3120 3123 3126 3129 3131 3134 3138 3141 3143 3144 3145 3148 3149 3150 3153 3153 3155 3156 3155 3155 3155 3156 3160 3162 3162 3164 3165 3166 3167 3163 3160 3163 3166 3168 3170 3172 3172 3172 3173 3174 3174 3175 3176 3176 3177 3178 3179
2954 2957 2961 2964 2967 2970 2974 2978 2981 2985 2990 2994 2997 3001 3004 3008 3013 3019 3024 3029 3034 3038 3042 3047 3049 3053 3055 3053 3058 3064 3069 3075 3079 3084 3090 3091 3095 3099 3103 3107 3111 3115 3119 3121 3123 3126 3129 3133 3136 3138 3140 3142 3145 3147 3149 3150 3150 3152 3152 3150 3150 3151 3154 3158 3159 3160 3162 3163 3164 3164 3161 3159 3161 3164 3166 3167 3168 3169 3169 3170 3171 3171 3172 3173 3174 3174 3175 3176
2949 2953 2957 2960 2963 2966 2970 2974 2978 2982 2987 2991 2995 2998 3001 3005 3010 3017 3021 3026 3032 3034 3038 3041 3043 3048 3049 3047 3053 3059 3061 3068 3074 3082 3086 3088 3092 3096 3099 3104 3107 3111 3115 3118 3121 3124 3126 3128 3132 3134 3136 3139 3141 3143 3147 3148 3147 3146 3146 3145 3146 3148 3152 3154 3155 3158 3160 3161 3161 3161 3159 3157 3158 3161 3163 3164 3165 3166 3166 3167 3168 3168 3169 3170 3171 3172 3172 3174
2945 2949 2953 2956 2959 2963 2967 2971 2975 2979 2984 2989 2992 2995 2999 3003 3008 3014 3019 3024 3029 3030 3033 3036 3041 3046 3044 3042 3048 3052 3054 3063 3071 3076 3080 3085 3089 3092 3096 3099 3103 3107 3110 3115 3118 3121 3123 3124 3127 3129 3132 3135 3138 3142 3144 3140 3138 3140 3141 3143 3144 3146 3149 3150 3152 3156 3158 3158 3158 3158 3155 3153 3156 3159 3160 3162 3162 3163 3164 3164 3165 3165 3166 3166 3167 3168 3169 3171
2942 2945 2949 2952 2955 2959 2963 2968 2972 2976 2981 2986 2990 2993 2997 3001 3005 3010 3014 3019 3024 3027 3029 3032 3037 3038 3033 3034 3042 3048 3053 3062 3067 3071 3076 3082 3086 3089 3093 3096 3099 3103 3107 3111 3114 3116 3118 3120 3122 3125 3127 3130 3132 3134 3131 3126 3129 3135 3137 3140 3142 3144 3146 3147 3150 3153 3155 3156 3155 3156 3152 3150 3154 3157 3159 3160 3161 3161 3161 3161 3161 3162 3162 3162 3163 3164 3165 3167
2938 2941 2945 2948 2952 2955 2960 2964 2969 2973 2978 2983 2986 2990 2994 2997 3000 3004 3008 3011 3013 3015 3017 3019 3023 3024 3023 3030 3040 3046 3052 3058 3062 3066 3070 3076 3082 3085 3089 3094 3097 3100 3103 3106 3108 3111 3113 3115 3118 3118 3117 3118 3119 3121 3121 3124 3131 3134 3135 3139 3141 3142 3142 3144 3148 3151 3153 3154 3152 3153 3150 3148 3152 3155 3157 3159 3159 3159 3159 3158 3158 3158 3158 3158 3159 3159 3161 3163
2934 2938 2941 2945 2948 2952 2956 2961 2965 2969 2975 2979 2981 2984 2985 2987 2991 2995 3001 3004 3004 3007 3010 3013 3018 3021 3024 3031 3038 3042 3048 3053 3056 3059 3064 3071 3078 3080 3082 3088 3093 3096 3098 3100 3103 3106 3108 3111 3109 3105 3106 3110 3114 3120 3124 3129 3132 3134 3136 3139 3140 3141 3140 3142 3146 3149 3151 3151 3149 3150 3149 3147 3149 3152 3154 3157 3156 3155 3154 3154 3155 3155 3155 3155 3155 3156 3158 3160
2930 2934 2937 2941 2945 2949 2953 2958 2962 2966 2971 2974 2976 2976 2976 2978 2982 2987 2996 3001 3004 3009 3012 3014 3019 3022 3024 3029 3033 3038 3045 3049 3051 3055 3060 3065 3071 3075 3076 3081 3085 3087 3092 3097 3100 3102 3105 3103 3099 3100 3106 3112 3116 3121 3125 3128 3130 3133 3135 3137 3138 3139 3138 3141 3145 3147 3148 3148 3147 3148 3146 3144 3146 3148 3150 3153 3152 3151 3151 3152 3152 3152 3152 3152 3152 3154 3155 3157
2927 2930 2934 2938 2941 2945 2950 2954 2959 2963 2967 2969 2971 2971 2973 2978 2983 2990 2997 2998 3000 3007 3010 3013 3018 3020 3023 3028 3031 3036 3041 3045 3047 3049 3054 3059 3064 3068 3071 3074 3077 3080 3086 3091 3094 3098 3099 3094 3092 3101 3108 3112 3116 3120 3123 3126 3129 3131 3132 3135 3136 3135 3137 3140 3142 3144 3146 3145 3145 3146 3144 3140 3142 3144 3146 3148 3147 3147 3149 3149 3149 3150 3150 3150 3150 3151 3153 3155
2923 2926 2931 2934 2938 2943 2946 2951 2956 2959 2961 2963 2965 2967 2973 2982 2988 2993 2997 2996 2998 3002 3004 3008 3014 3017 3019 3023 3027 3032 3036 3039 3043 3044 3048 3054 3059 3064 3067 3070 3073 3077 3080 3082 3085 3089 3087 3084 3090 3102 3107 3108 3112 3117 3121 3123 3126 3128 3129 3131 3131 3132 3136 3137 3140 3142 3143 3144 3144 3144 3141 3136 3138 3140 3141 3143 3144 3144 3147 3146 3146 3147 3146 3147 3148 3149 3150 3151
2919 2923 2927 2930 2935 2939 2943 2948 2952 2953 2955 2959 2962 2966 2975 2983 2986 2989 2994 2997 2998 2999 3000 3005 3010 3013 3014 3018 3024 3029 3031 3034 3038 3041 3045 3049 3055 3060 3064 3067 3071 3073 3075 3077 3081 3082 3080 3081 3090 3099 3102 3105 3110 3114 3117 3120 3123 3125 3126 3128 3129 3131 3134 3136 3140 3141 3141 3142 3141 3142 3140 3131 3132 3136 3135 3139 3141 3140 3143 3144 3143 3143 3144 3145 3146 3147 3147 3148
2916 2920 2923 2928 2932 2936 2942 2944 2944 2948 2952 2955 2959 2966 2975 2980 2984 2989 2994 2995 2995 2997 3000 3003 3005 3007 3010 3017 3021 3025 3030 3031 3032 3036 3041 3046 3050 3055 3060 3066 3069 3069 3072 3076 3080 3081 3081 3083 3089 3095 3098 3103 3107 3109 3113 3116 3120 3122 3123 3126 3129 3131 3134 3136 3139 3140 3140 3139 3138 3142 3140 3126 3126 3131 3131 3134 3137 3136 3139 3140 3139 3140 3142 3142 3143 3144 3145 3146
2912 2916 2920 2924 2928 2934 2937 2936 2938 2946 2948 2950 2956 2966 2972 2977 2983 2988 2992 2994 2990 2990 2992 2996 3000 3002 3006 3012 3016 3024 3028 3026 3029 3033 3037 3043 3048 3051 3055 3060 3065 3067 3070 3076 3079 3080 3080 3082 3087 3091 3094 3100 3104 3106 3109 3113 3117 3119 3119 3125 3129 3130 3133 3135 3136 3138 3138 3136 3136 3139 3138 3127 3121 3124 3127 3130 3132 3132 3135 3135 3134 3137 3139 3139 3140 3142 3144 3144
2909 2913 2917 2921 2925 2929 2929 2930 2936 2941 2942 2946 2955 2964 2969 2975 2982 2986 2991 2991 2982 2981 2985 2989 2994 2998 3003 3009 3013 3019 3019 3018 3028 3031 3031 3037 3043 3047 3051 3053 3060 3065 3069 3075 3077 3074 3076 3079 3083 3087 3092 3097 3098 3099 3103 3108 3114 3114 3116 3125 3128 3128 3132 3133 3135 3136 3135 3135 3135 3134 3135 3131 3119 3115 3121 3125 3126 3128 3129 3130 3131 3133 3135 3136 3138 3140 3141 3142
2905 2909 2913 2917 2921 2924 2925 2928 2933 2935 2938 2946 2955 2961 2966 2972 2978 2982 2986 2982 2971 2973 2980 2983 2990 2996 3001 3008 3010 3012 3013 3017 3024 3026 3029 3036 3037 3042 3046 3048 3054 3060 3064 3069 3068 3068 3071 3071 3074 3080 3085 3089 3090 3094 3099 3106 3112 3112 3117 3124 3127 3129 3131 3132 3134 3134 3134 3135 3132 3129 3133 3132 3115 3108 3117 3120 3121 3123 3123 3125 3128 3130 3133 3134 3136 3137 3137 3139
2902 2906 2910 2914 2918 2920 2923 2926 2928 2933 2939 2947 2953 2959 2964 2969 2974 2978 2980 2973 2964 2967 2976 2980 2987 2991 2995 3002 3006 3008 3012 3016 3019 3022 3029 3033 3034 3038 3042 3046 3053 3058 3062 3065 3065 3068 3070 3071 3074 3078 3081 3084 3088 3094 3100 3106 3110 3112 3117 3123 3126 3128 3129 3131 3132 3132 3134 3131 3125 3125 3129 3127 3112 3104 3112 3113 3113 3117 3118 3122 3126 3128 3131 3132 3132 3133 3134 3135
2899 2903 2907 2911 2913 2915 2919 2921 2925 2931 2938 2945 2951 2956 2962 2963 2965 2968 2967 2961 2959 2964 2971 2976 2980 2984 2990 2997 3001 3004 3007 3011 3016 3021 3024 3026 3030 3034 3039 3046 3052 3056 3060 3065 3068 3070 3072 3074 3077 3078 3082 3085 3090 3096 3101 3107 3110 3112 3118 3122 3125 3127 3127 3131 3130 3130 3134 3124 3118 3121 3124 3126 3113 3097 3102 3107 3107 3113 3116 3119 3123 3125 3128 3129 3129 3129 3129 3130
2895 2899 2903 2906 2907 2910 2914 2915 2921 2928 2934 2941 2948 2952 2956 2957 2956 2956 2954 2954 2959 2962 2964 2970 2975 2979 2986 2992 2996 3000 3003 3007 3012 3014 3016 3021 3026 3030 3035 3042 3047 3052 3057 3060 3064 3068 3071 3072 3074 3076 3081 3084 3089 3096 3101 3106 3109 3111 3115 3119 3124 3126 3126 3129 3128 3130 3131 3118 3113 3116 3120 3126 3111 3088 3093 3102 3103 3110 3112 3114 3119 3121 3124 3126 3125 3125 3125 3126
2892 2896 2899 2901 2904 2907 2909 2912 2920 2926 2930 2936 2942 2945 2949 2950 2947 2946 2948 2954 2957 2955 2957 2964 2970 2976 2985 2990 2993 2996 2998 3001 3005 3008 3010 3014 3019 3022 3026 3031 3037 3045 3050 3053 3059 3064 3066 3066 3069 3073 3076 3079 3085 3092 3098 3103 3106 3109 3112 3116 3121 3124 3125 3126 3125 3125 3122 3113 3110 3113 3117 3117 3098 3082 3091 3098 3099 3105 3108 3111 3115 3117 3120 3121 3121 3121 3121 3121
2889 2892 2896 2897 2900 2903 2906 2912 2919 2923 2926 2931 2937 2941 2944 2940 2935 2938 2945 2949 2948 2950 2956 2962 2967 2975 2982 2986 2988 2992 2996 2998 3000 3004 3007 3009 3014 3018 3022 3026 3030 3035 3040 3047 3052 3057 3063 3067 3068 3070 3073 3076 3080 3084 3089 3093 3098 3101 3103 3108 3112 3115 3118 3117 3115 3115 3112 3108 3108 3112 3115 3106 3088 3082 3089 3093 3097 3102 3105 3108 3111 3113 3116 3116 3117 3117 3117 3117
2886 2889 2891 2893 2896 2900 2906 2911 2914 2919 2924 2928 2931 2935 2935 2932 2931 2936 2941 2943 2945 2950 2956 2960 2965 2972 2978 2979 2982 2987 2992 2993 2995 3000 3003 3006 3009 3012 3018 3023 3028 3032 3036 3041 3044 3047 3053 3055 3056 3059 3062 3067 3072 3077 3081 3086 3092 3095 3099 3104 3103 3104 3106 3104 3104 3105 3103 3104 3107 3111 3109 3095 3083 3083 3086 3090 3096 3098 3101 3105 3107 3110 3112 3112 3112 3113 3113 3114
2882 2884 2887 2889 2892 2897 2902 2906 2910 2916 2920 2923 2926 2925 2924 2925 2928 2932 2936 2940 2944 2948 2953 2960 2963 2969 2974 2977 2981 2985 2987 2989 2993 2997 2998 3000 3002 3005 3011 3016 3022 3029 3034 3038 3042 3045 3048 3046 3046 3052 3057 3060 3066 3073 3080 3086 3091 3094 3099 3102 3099 3099 3101 3101 3101 3100 3101 3104 3104 3102 3095 3082 3079 3082 3084 3090 3093 3095 3099 3101 3103 3107 3108 3108 3108 3109 3110 3111
2877 2879 2882 2885 2888 2893 2898 2903 2907 2912 2915 2919 2920 2918 2918 2922 2926 2929 2934 2939 2942 2943 2950 2957 2960 2963 2969 2973 2978 2982 2986 2989 2991 2993 2994 2997 2999 3000 3005 3008 3012 3019 3024 3031 3036 3040 3045 3045 3046 3052 3057 3060 3065 3070 3075 3080 3085 3090 3094 3093 3094 3098 3101 3102 3102 3101 3103 3102 3095 3090 3084 3079 3080 3079 3081 3089 3090 3092 3097 3097 3100 3103 3103 3105 3106 3106 3107 3108
2872 2875 2878 2881 2885 2890 2895 2900 2904 2908 2912 2914 2913 2914 2918 2922 2925 2928 2932 2936 2941 2942 2945 2949 2953 2958 2963 2967 2972 2977 2984 2988 2988 2989 2991 2994 2996 2997 3001 3006 3008 3012 3018 3025 3029 3032 3037 3041 3043 3047 3051 3056 3063 3068 3072 3076 3080 3083 3085 3087 3093 3098 3099 3101 3102 3102 3105 3101 3090 3083 3079 3080 3083 3076 3076 3085 3087 3089 3094 3095 3098 3100 3100 3102 3103 3104 3105 3105
2869 2874 2875 2877 2882 2887 2892 2898 2900 2904 2909 2910 2910 2913 2917 2920 2923 2927 2930 2934 2939 2941 2942 2944 2949 2954 2957 2960 2965 2972 2979 2982 2983 2986 2988 2990 2992 2993 2998 3004 3008 3012 3017 3023 3029 3033 3036 3040 3044 3047 3049 3055 3062 3068 3072 3075 3077 3077 3080 3085 3090 3093 3095 3097 3098 3098 3100 3098 3088 3080 3077 3077 3075 3069 3072 3081 3084 3087 3092 3094 3095 3096 3096 3098 3099 3101 3102 3102
2868 2871 2870 2872 2878 2884 2889 2894 2898 2901 2905 2906 2907 2909 2912 2916 2920 2924 2928 2932 2936 2938 2940 2942 2946 2952 2955 2956 2961 2967 2971 2974 2978 2983 2985 2987 2989 2992 2996 3001 3005 3011 3016 3022 3027 3031 3034 3038 3042 3044 3048 3054 3058 3062 3065 3068 3072 3076 3080 3083 3085 3088 3090 3091 3091 3091 3092 3093 3086 3079 3075 3068 3061 3062 3070 3078 3081 3085 3089 3091 3093 3093 3093 3094 3096 3098 3099 3100
2864 2867 2866 2869 2875 2881 2887 2892 2895 2897 2898 2900 2903 2906 2909 2913 2917 2921 2925 2929 2932 2935 2937 2941 2944 2948 2952 2955 2959 2963 2967 2971 2975 2978 2981 2984 2988 2991 2995 2998 3002 3008 3015 3021 3025 3028 3031 3033 3037 3041 3045 3048 3050 3051 3053 3055 3060 3067 3072 3075 3077 3081 3085 3086 3087 3087 3088 3089 3085 3080 3072 3056 3052 3060 3067 3072 3078 3082 3086 3088 3090 3091 3091 3092 3093 3094 3096 3097
2861 2863 2864 2867 2872 2877 2883 2887 2889 2891 2893 2897 2901 2903 2906 2910 2914 2919 2923 2926 2929 2932 2936 2940 2943 2946 2950 2953 2957 2961 2965 2968 2972 2976 2978 2980 2983 2987 2991 2996 3000 3005 3012 3018 3020 3024 3027 3028 3032 3035 3037 3040 3041 3043 3046 3048 3050 3052 3056 3059 3063 3070 3076 3080 3082 3081 3083 3082 3079 3079 3067 3048 3049 3059 3063 3069 3075 3079 3083 3085 3085 3087 3089 3090 3091 3091 3092 3093
2857 2859 2861 2865 2869 2874 2878 2881 2883 2887 2890 2894 2897 2901 2905 2909 2913 2918 2921 2924 2927 2931 2936 2939 2942 2946 2949 2951 2954 2958 2962 2965 2969 2972 2974 2976 2980 2984 2989 2994 2998 3002 3006 3010 3014 3019 3023 3025 3027 3029 3032 3036 3039 3043 3047 3051 3054 3055 3054 3054 3059 3066 3070 3074 3075 3075 3078 3078 3075 3079 3067 3045 3047 3058 3060 3067 3074 3076 3080 3080 3080 3083 3084 3086 3088 3088 3089 3090
2853 2856 2860 2863 2867 2871 2873 2876 2880 2884 2887 2891 2896 2900 2903 2907 2912 2916 2919 2922 2925 2929 2933 2937 2941 2945 2948 2951 2954 2957 2960 2963 2965 2968 2972 2975 2978 2983 2988 2993 2997 3000 3003 3006 3010 3015 3019 3021 3024 3028 3033 3035 3037 3041 3045 3049 3054 3055 3055 3056 3059 3062 3066 3069 3071 3072 3075 3074 3074 3079 3068 3044 3043 3056 3059 3063 3069 3072 3075 3077 3078 3080 3081 3083 3085 3085 3087 3088
2850 2856 2859 2860 2863 2867 2869 2870 2874 2878 2883 2889 2894 2897 2901 2906 2910 2914 2917 2920 2923 2927 2930 2934 2938 2942 2945 2950 2953 2956 2959 2961 2963 2967 2971 2972 2975 2982 2988 2991 2993 2995 2997 2999 3003 3007 3011 3014 3018 3025 3030 3033 3036 3039 3042 3045 3047 3048 3051 3054 3055 3059 3065 3068 3070 3071 3070 3068 3070 3076 3064 3042 3042 3053 3056 3058 3063 3066 3071 3074 3076 3078 3079 3080 3081 3082 3084 3085
2847 2853 2858 2858 2860 2863 2865 2868 2871 2875 2880 2885 2891 2895 2899 2904 2908 2912 2915 2918 2921 2924 2928 2931 2935 2939 2943 2947 2950 2954 2957 2958 2960 2964 2967 2970 2974 2979 2984 2988 2990 2991 2992 2997 3000 3002 3004 3005 3007 3012 3017 3021 3023 3022 3022 3027 3032 3036 3041 3045 3047 3053 3056 3058 3063 3063 3060 3059 3062 3064 3054 3039 3041 3050 3052 3056 3060 3063 3068 3071 3073 3076 3078 3078 3079 3080 3081 3082
2844 2849 2852 2855 2858 2861 2864 2868 2871 2874 2878 2883 2888 2893 2897 2901 2906 2910 2914 2917 2919 2922 2926 2929 2932 2937 2940 2944 2947 2950 2953 2956 2958 2959 2963 2967 2971 2974 2979 2984 2987 2988 2992 2997 2998 2998 3000 3001 3002 3002 3001 3001 3001 2999 3002 3010 3017 3022 3027 3031 3034 3038 3042 3047 3050 3048 3048 3050 3049 3047 3043 3038 3041 3047 3050 3055 3059 3062 3066 3069 3071 3074 3075 3076 3077 3078 3078 3079
2842 2844 2846 2849 2855 2860 2863 2867 2871 2874 2878 2882 2886 2890 2895 2899 2903 2907 2911 2914 2917 2920 2924 2927 2930 2934 2937 2940 2944 2947 2949 2952 2955 2957 2959 2963 2966 2971 2975 2979 2982 2986 2991 2994 2993 2993 2995 2997 2999 3000 2998 2998 2999 3000 3005 3012 3017 3019 3022 3024 3026 3030 3035 3039 3038 3036 3040 3040 3035 3036 3038 3036 3038 3045 3049 3053 3057 3061 3064 3067 3069 3071 3072 3074 3075 3075 3076 3076
2838 2841 2844 2846 2849 2854 2859 2864 2869 2874 2879 2883 2886 2889 2893 2897 2901 2904 2908 2911 2914 2918 2921 2924 2928 2931 2934 2937 2941 2944 2946 2947 2950 2954 2956 2958 2962 2966 2970 2975 2978 2982 2987 2990 2989 2990 2992 2992 2994 2997 2997 3000 3003 3005 3007 3012 3015 3016 3018 3020 3024 3029 3033 3033 3032 3033 3035 3033 3030 3034 3036 3033 3036 3043 3047 3051 3056 3059 3062 3065 3067 3068 3069 3070 3071 3072 3072 3073
2835 2839 2844 2847 2848 2852 2857 2862 2867 2873 2878 2882 2885 2889 2892 2895 2899 2903 2906 2909 2912 2915 2919 2921 2924 2928 2931 2935 2937 2939 2941 2944 2947 2950 2952 2955 2958 2961 2966 2970 2972 2978 2983 2983 2984 2987 2988 2988 2991 2995 2996 2999 3002 3004 3006 3010 3012 3014 3016 3019 3023 3027 3030 3033 3033 3032 3034 3034 3034 3035 3034 3032 3034 3039 3044 3049 3054 3057 3060 3062 3063 3064 3065 3066 3067 3068 3069 3070
2835 2837 2841 2846 2850 2854 2858 2861 2866 2871 2876 2881 2884 2889 2892 2895 2899 2902 2904 2907 2910 2913 2916 2919 2922 2925 2928 2931 2934 2936 2939 2942 2946 2948 2950 2952 2954 2957 2962 2964 2967 2973 2977 2978 2980 2983 2984 2985 2989 2994 2995 2995 2998 3002 3004 3007 3009 3011 3013 3016 3021 3026 3030 3033 3033 3033 3035 3036 3035 3035 3032 3028 3030 3035 3040 3044 3049 3053 3055 3057 3059 3060 3061 3062 3064 3066 3067 3069
2837 2839 2842 2845 2850 2856 2859 2862 2866 2870 2875 2879 2882 2886 2891 2895 2898 2900 2903 2907 2910 2912 2915 2918 2920 2923 2925 2928 2931 2934 2937 2940 2944 2946 2949 2951 2953 2955 2958 2960 2964 2967 2970 2972 2974 2977 2981 2984 2987 2991 2990 2989 2994 2998 3000 3003 3007 3006 3006 3011 3018 3023 3026 3026 3025 3024 3026 3027 3029 3029 3023 3019 3024 3032 3034 3038 3042 3045 3047 3052 3055 3057 3058 3060 3062 3064 3066 3067
2837 2841 2844 2846 2849 2855 2859 2862 2866 2869 2873 2877 2881 2885 2889 2893 2896 2899 2902 2906 2909 2911 2914 2916 2919 2921 2924 2927 2929 2932 2935 2938 2941 2944 2947 2950 2953 2953 2954 2957 2960 2961 2963 2966 2968 2972 2977 2980 2983 2985 2984 2985 2989 2992 2995 3002 3000 2994 2996 3005 3012 3015 3017 3017 3015 3014 3016 3019 3021 3018 3013 3014 3022 3027 3029 3032 3034 3035 3039 3045 3050 3053 3055 3056 3058 3060 3062 3063